This demonstration page uses our WeatherBlox Daily Observations layout. Learn more.

Left ArrowRight Arrow

Hourly Observations for July 16, 2019

Temp ( °F °C ) Dew Point ( °F °C ) Humidity (%) Winds ( mph kmh ) Pressure ( in mb ) Visibility ( mi km ) Precip ( " mm )
12:56 am 00:56 Clear 75 23.9 70 21.1 84 84 S 12 19 29.85 1011 10 16 0.00 0.00
1:56 am 01:56 Mostly Cloudy 74 23.3 68 20 82 82 S 8 13 29.86 1011 10 16 0.00 0.00
2:56 am 02:56 Cloudy 75 23.9 68 20 79 79 SSW 15 24 29.85 1011 10 16 0.00 0.00
3:56 am 03:56 Mostly Cloudy 75 23.9 68 20 79 79 NNE 9 15 29.89 1012 10 16 0.00 0.00
4:56 am 04:56 Cloudy 70 21.1 66 18.9 87 87 NNE 21 33 29.94 1014 10 16 0.00 0.00
5:56 am 05:56 Partly Cloudy 68 20 65 18.3 90 90 ENE 17 28 29.91 1013 10 16 0.00 0.00
6:56 am 06:56 Mostly Sunny 68 20 64 17.8 87 87 ENE 10 17 29.90 1013 10 16 0.00 0.00
7:56 am 07:56 Mostly Sunny 70 21.1 64 17.8 82 82 ESE 12 19 29.90 1013 10 16 0.00 0.00
8:56 am 08:56 Partly Cloudy 73 22.8 66 18.9 79 79 ESE 10 17 29.91 1013 10 16 0.00 0.00
9:56 am 09:56 Mostly Sunny 76 24.4 68 20 77 77 SSE 10 17 29.90 1012 10 16 0.00 0.00
10:56 am 10:56 Sunny 80 26.7 70 21.1 71 71 S 15 24 29.88 1012 10 16 0.00 0.00
11:56 am 11:56 Sunny 83 28.3 71 21.7 67 67 S 14 22 29.87 1011 10 16 0.00 0.00
12:56 pm 12:56 Sunny 84 28.9 72 22.2 67 67 SSW 5 7 29.88 1012 10 16 0.00 0.00
1:56 pm 13:56 Partly Cloudy 85 29.4 73 22.8 68 68 S 5 7 29.88 1012 10 16 0.00 0.00
2:56 pm 14:56 Mostly Sunny 86 30 73 22.8 65 65 SSE 5 7 29.86 1011 10 16 0.00 0.00
3:56 pm 15:56 Mostly Sunny 87 30.6 74 23.3 65 65 SSE 7 11 29.85 1011 10 16 0.00 0.00
4:56 pm 16:56 Mostly Sunny 88 31.1 74 23.3 63 63 SE 8 13 29.84 1011 10 16 0.00 0.00
5:56 pm 17:56 Sunny 88 31.1 73 22.8 61 61 SSE 9 15 29.83 1010 10 16 0.00 0.00
6:56 pm 18:56 Sunny 88 31.1 74 23.3 63 63 SE 7 11 29.82 1010 10 16 0.00 0.00
7:56 pm 19:56 Sunny 86 30 74 23.3 67 67 ESE 7 11 29.82 1010 10 16 0.00 0.00
8:56 pm 20:56 Sunny 81 27.2 77 25 88 88 E 8 13 29.83 1010 10 16 0.00 0.00
9:56 pm 21:56 Clear 79 26.1 76 24.4 90 90 E 9 15 29.83 1010 10 16 0.00 0.00
10:56 pm 22:56 Clear 79 26.1 76 24.4 90 90 E 10 17 29.82 1010 10 16 0.00 0.00
11:56 pm 23:56 Clear 78 25.6 75 23.9 90 90 ESE 13 20 29.83 1010 10 16 0.00 0.00

Powered by AerisWeather